DW5775 Weather Reports


Display with metric or nautical units.
time (UTC)temp
F
wind
direction
speed
MPH
gust
MPH
rain 1hr
in
rain 24hr
in
rain mn
in
humidity
%
barometer
mb
20260831124541 69 312 0.0 0.0 0.00 0.27 0.00 96 1015.0
20260831123039 69 312 0.0 0.0 0.00 0.27 0.00 96 1014.9
20260831121538 68 312 0.0 0.0 0.00 0.27 0.00 96 1014.8
20260831120040 68 311 0.0 0.0 0.00 0.27 0.00 96 1014.8
20260831114537 68 312 0.0 0.0 0.00 0.27 0.00 96 1015.0
20260831113037 68 312 0.0 0.0 0.00 0.27 0.00 96 1015.0
20260831111549 68 311 0.0 0.0 0.00 0.27 0.00 96 1014.9
20260831110044 68 312 0.0 0.0 0.00 0.27 0.00 96 1014.9
20260831104549 68 312 0.0 0.0 0.00 0.27 0.00 96 1014.8
20260831103037 68 312 0.0 0.0 0.00 0.27 0.00 96 1014.8
20260831101535 68 311 0.0 0.0 0.00 0.27 0.00 96 1015.0
20260831100033 68 312 0.0 0.0 0.00 0.27 0.00 96 1014.7
20260831094533 68 312 0.0 0.0 0.00 0.32 0.00 96 1014.6
20260831093044 68 312 0.0 1.0 0.00 0.32 0.00 96 1014.7
20260831091531 68 312 0.0 1.0 0.00 0.32 0.00 96 1014.7
20260831090036 68 307 0.0 3.0 0.00 0.32 0.00 96 1014.6
20260831084531 67 267 0.0 0.0 0.00 0.33 0.00 96 1014.6
20260831083029 67 267 0.0 0.0 0.00 0.33 0.00 96 1014.6
20260831081528 67 267 0.0 0.0 0.00 0.33 0.00 96 1014.5
20260831080029 67 266 0.0 0.0 0.00 0.33 0.00 96 1014.4
20260831074526 67 267 0.0 0.0 0.00 0.33 0.00 96 1014.5
20260831073023 67 267 0.0 0.0 0.00 0.33 0.00 96 1014.7
20260831071529 67 267 0.0 0.0 0.00 0.33 0.00 96 1014.8
20260831070021 67 267 0.0 0.0 0.00 0.33 0.00 96 1014.9
20260831064521 67 267 0.0 0.0 0.00 0.33 0.00 96 1015.2
20260831063019 67 267 0.0 0.0 0.00 0.33 0.00 96 1015.2
20260831061518 67 267 0.0 0.0 0.00 0.33 0.00 96 1015.1
20260831060017 67 267 0.0 0.0 0.00 0.33 0.00 96 1015.1
20260831054516 68 267 0.0 0.0 0.00 0.33 0.00 96 1015.2
20260831053020 68 267 0.0 0.0 0.00 0.33 0.00 95 1015.4
20260831051513 68 267 0.0 0.0 0.00 0.33 0.00 95 1015.4
20260831050015 68 267 0.0 0.0 0.00 0.33 0.00 95 1015.3
20260831044510 68 267 0.0 0.0 0.00 0.33 0.00 95 1015.5
20260831043008 68 267 0.0 0.0 0.00 0.33 0.00 95 1015.5
20260831041508 68 267 0.0 2.0 0.00 0.33 0.00 95 1015.5
20260831040006 68 198 0.0 0.0 0.00 0.33 0.00 95 1015.6
20260831034504 68 198 0.0 0.0 0.00 0.33 0.33 95 1015.7
20260831033008 68 198 0.0 0.0 0.00 0.33 0.33 94 1015.5
20260831031511 68 198 0.0 0.0 0.00 0.33 0.33 94 1015.6
20260831030003 68 198 0.0 0.0 0.00 0.33 0.33 94 1015.4
20260831024502 68 198 0.0 0.0 0.00 0.33 0.33 94 1015.4
20260831023001 69 198 0.0 1.0 0.00 0.33 0.33 94 1015.4
20260831021600 69 199 0.0 0.0 0.00 0.33 0.33 94 1015.4
20260831020059 68 198 0.0 0.0 0.00 0.33 0.33 94 1015.4
20260831014559 68 195 0.0 0.0 0.00 0.33 0.33 94 1015.3
20260831013058 68 188 0.0 0.0 0.00 0.33 0.33 94 1015.1
20260831011557 68 195 0.0 0.0 0.00 0.33 0.33 94 1015.2
20260831010055 69 195 0.0 0.0 0.00 0.33 0.33 93 1015.1
20260831004555 69 195 0.0 0.0 0.00 0.33 0.33 93 1015.0
20260831003057 69 195 0.0 0.0 0.00 0.33 0.33 93 1014.7
20260831001554 69 191 0.0 1.0 0.00 0.33 0.33 93 1014.6
20260831000051 69 194 0.0 2.0 0.00 0.33 0.33 93 1014.8
20260830234559 70 231 0.0 2.0 0.00 0.33 0.33 93 1015.0
20260830233049 70 208 0.0 1.0 0.00 0.33 0.33 94 1015.1
20260830231550 70 193 0.0 0.0 0.00 0.33 0.33 94 1015.1
20260830230048 70 224 0.0 0.0 0.00 0.33 0.33 94 1015.3
20260830224550 70 224 0.0 0.0 0.01 0.33 0.33 94 1015.5
20260830223048 71 224 0.0 1.0 0.01 0.33 0.33 94 1015.4
20260830221546 71 224 0.0 0.0 0.01 0.33 0.33 94 1015.6
20260830220046 71 224 0.0 0.0 0.01 0.33 0.33 92 1015.6
20260830214557 71 224 0.0 0.0 0.01 0.32 0.32 90 1015.7
20260830213045 72 224 0.0 0.0 0.01 0.32 0.32 91 1015.6
20260830211552 72 223 0.0 0.0 0.01 0.32 0.32 91 1015.4
20260830210049 72 224 0.0 1.0 0.01 0.32 0.32 89 1015.1
20260830204543 72 212 0.0 1.0 0.00 0.31 0.31 87 1015.1
20260830203049 72 187 1.0 3.0 0.00 0.31 0.31 86 1015.0
20260830201544 72 174 0.0 5.0 0.00 0.31 0.31 87 1015.2
20260830200038 72 201 0.0 2.0 0.00 0.31 0.31 89 1015.1
20260830194538 71 136 0.0 5.0 0.00 0.31 0.31 90 1015.1
20260830193041 71 201 0.0 4.0 0.00 0.31 0.31 91 1015.1
20260830191535 71 188 0.0 1.0 0.00 0.31 0.31 93 1015.3
20260830190038 70 162 1.0 3.0 0.00 0.31 0.31 93 1015.6
20260830184535 70 146 0.0 1.0 0.00 0.31 0.31 93 1015.4
20260830183033 71 197 0.0 3.0 0.00 0.31 0.31 92 1015.3
20260830181533 71 151 0.0 7.0 0.00 0.31 0.31 91 1015.3
20260830180036 71 197 1.0 4.0 0.00 0.31 0.31 93 1015.4
20260830174529 70 203 1.0 4.0 0.00 0.31 0.31 95 1015.6
20260830173036 69 193 0.0 2.0 0.00 0.31 0.31 96 1016.0
20260830171522 68 138 0.0 3.0 0.00 0.31 0.31 96 1016.2
20260830170027 68 205 0.0 4.0 0.00 0.31 0.31 96 1016.4
20260830164520 68 212 0.0 3.0 0.01 0.31 0.31 96 1016.9
20260830163031 67 222 0.0 0.0 0.01 0.31 0.31 96 1017.1
20260830161520 67 217 0.0 1.0 0.01 0.31 0.31 96 1017.5
20260830160019 67 215 0.0 1.0 0.02 0.31 0.31 96 1017.6
20260830154521 67 197 0.0 1.0 0.05 0.30 0.30 96 1017.8
20260830153018 66 6 0.0 1.0 0.08 0.30 0.30 96 1018.0
20260830151518 66 6 0.0 0.0 0.10 0.30 0.30 96 1017.9
20260830150017 66 6 0.0 0.0 0.10 0.28 0.28 96 1018.0
20260830144520 66 6 0.0 0.0 0.09 0.25 0.25 96 1018.2
20260830143013 66 6 0.0 1.0 0.08 0.22 0.22 96 1017.9
20260830141512 66 5 0.0 0.0 0.09 0.20 0.20 96 1017.8
20260830140010 67 4 0.0 0.0 0.08 0.18 0.18 96 1017.5
20260830134509 67 125 0.0 1.0 0.09 0.16 0.16 96 1017.4
20260830133009 68 197 0.0 0.0 0.08 0.14 0.14 96 1017.8
20260830131513 68 197 0.0 0.0 0.05 0.11 0.11 96 1017.8
20260830130007 69 198 0.0 0.0 0.04 0.10 0.10 96 1017.8